LKPR Weather Reports


Display with metric or nautical units.
time (UTC)temp
F
wind
direction
speed
MPH
gust
MPH
rain 1hr
in
rain 24hr
in
rain mn
in
humidity
%
barometer
mb
20260831100203 66 210 15.0 0.0 0.00 0.00 0.00 88 1016.0
20260831093202 64 200 12.0 0.0 0.00 0.00 0.00 88 1016.0
20260831091902 64 200 14.0 0.0 0.00 0.00 0.00 88 1016.0
20260831091803 64 210 12.0 0.0 0.00 0.00 0.00 88
20260831090203 64 180 8.0 0.0 0.00 0.00 0.00 88 1015.0
20260831083203 63 200 7.0 0.0 0.00 0.00 0.00 93 1015.0
20260831081904 61 220 7.0 0.0 0.00 0.00 0.00 93
20260831080202 63 220 6.0 0.0 0.00 0.00 0.00 88 1015.0
20260831073202 61 140 5.0 0.0 0.00 0.00 0.00 93 1015.0
20260831071919 59 240 5.0 0.0 0.00 0.00 0.00 99
20260831070203 61 230 7.0 0.0 0.00 0.00 0.00 93 1015.0
20260831065003 61 240 9.0 0.0 0.00 0.00 0.00 93 1015.0
20260831063602 61 250 17.0 0.0 0.00 0.00 0.00 93 1015.0
20260831063202 61 240 22.0 0.0 0.00 0.00 0.00 93 1015.0
20260831062703 61 240 24.0 0.0 0.00 0.00 0.00 93 1015.0
20260831061910 64 200 5.0 0.0 0.00 0.00 0.00 77
20260831061903 61 250 25.0 39.0 0.00 0.00 0.00 93 1015.0
20260831061808 61 250 25.0 39.0 0.00 0.00 0.00 93 1015.0
20260831061603 61 250 25.0 39.0 0.00 0.00 0.00 93 1015.0
20260831061303 64 250 24.0 36.0 0.00 0.00 0.00 77 1015.0
20260831061203 64 250 22.0 0.0 0.00 0.00 0.00 77 1015.0
20260831061004 64 210 7.0 20.0 0.00 0.00 0.00 82 1015.0
20260831060203 64 160 5.0 0.0 0.00 0.00 0.00 77 1014.0
20260831053203 64 140 8.0 0.0 0.00 0.00 0.00 77 1013.0
20260831052029 61 170 5.0 0.0 0.00 0.00 0.00 87
20260831050203 63 150 5.0 0.0 0.00 0.00 0.00 82 1014.0
20260831043202 63 170 5.0 0.0 0.00 0.00 0.00 82 1014.0
20260831042104 61 160 5.0 0.0 0.00 0.00 0.00 82
20260831040203 63 140 7.0 0.0 0.00 0.00 0.00 82 1014.0
20260831033203 61 130 7.0 0.0 0.00 0.00 0.00 87 1014.0
20260831031802 61 190 7.0 0.0 0.00 0.00 0.00 82
20260831030203 61 170 3.0 0.0 0.00 0.00 0.00 87 1014.0
20260831023202 63 190 6.0 0.0 0.00 0.00 0.00 82 1015.0
20260831021902 63 220 7.0 0.0 0.00 0.00 0.00 77
20260831020202 63 210 7.0 0.0 0.00 0.00 0.00 77 1015.0
20260831013203 63 210 6.0 0.0 0.00 0.00 0.00 77 1015.0
20260831011901 63 230 7.0 0.0 0.00 0.00 0.00 77
20260831010201 63 210 6.0 0.0 0.00 0.00 0.00 77 1015.0
20260831003203 63 200 8.0 0.0 0.00 0.00 0.00 77 1015.0
20260831001801 63 230 7.0 0.0 0.00 0.00 0.00 77
20260831000204 61 210 7.0 0.0 0.00 0.00 0.00 82 1015.0
20260830233203 63 200 7.0 0.0 0.00 0.00 0.00 77 1015.0
20260830232003 64 220 9.0 0.0 0.00 0.00 0.00 72
20260830230201 64 200 9.0 0.0 0.00 0.00 0.00 77 1015.0
20260830223202 64 190 8.0 0.0 0.00 0.00 0.00 72 1015.0
20260830222017 66 200 9.0 0.0 0.00 0.00 0.00 68
20260830220203 64 180 5.0 0.0 0.00 0.00 0.00 72 1015.0
20260830213203 66 190 7.0 0.0 0.00 0.00 0.00 68 1015.0
20260830211805 66 220 7.0 0.0 0.00 0.00 0.00 63
20260830210201 66 190 8.0 0.0 0.00 0.00 0.00 63 1015.0
20260830203203 66 210 8.0 0.0 0.00 0.00 0.00 68 1015.0
20260830202002 66 220 7.0 0.0 0.00 0.00 0.00 68
20260830200202 66 200 7.0 0.0 0.00 0.00 0.00 68 1015.0
20260830193203 70 240 8.0 0.0 0.00 0.00 0.00 60 1015.0
20260830191901 70 250 7.0 0.0 0.00 0.00 0.00 56
20260830190203 70 220 8.0 0.0 0.00 0.00 0.00 60 1015.0
20260830183202 70 220 8.0 0.0 0.00 0.00 0.00 60 1015.0
20260830181805 72 230 7.0 0.0 0.00 0.00 0.00 56
20260830180202 72 210 8.0 0.0 0.00 0.00 0.00 56 1014.0
20260830173203 73 200 9.0 0.0 0.00 0.00 0.00 53 1014.0
20260830172001 75 230 9.0 0.0 0.00 0.00 0.00 47
20260830170203 75 200 10.0 0.0 0.00 0.00 0.00 50 1014.0
20260830163203 77 220 12.0 0.0 0.00 0.00 0.00 44 1014.0
20260830161903 79 240 12.0 0.0 0.00 0.00 0.00 39
20260830160203 79 230 15.0 0.0 0.00 0.00 0.00 41 1014.0
20260830153203 77 220 12.0 0.0 0.00 0.00 0.00 44 1014.0
20260830151801 79 230 16.0 0.0 0.00 0.00 0.00 39
20260830150204 79 210 14.0 0.0 0.00 0.00 0.00 39 1014.0
20260830143203 79 220 12.0 0.0 0.00 0.00 0.00 39 1014.0
20260830141900 79 230 14.0 0.0 0.00 0.00 0.00 36
20260830140202 79 200 13.0 0.0 0.00 0.00 0.00 39 1014.0
20260830133203 79 240 13.0 0.0 0.00 0.00 0.00 41 1015.0
20260830131902 79 240 16.0 0.0 0.00 0.00 0.00 39
20260830130203 79 210 20.0 0.0 0.00 0.00 0.00 41 1015.0
20260830123202 79 200 14.0 0.0 0.00 0.00 0.00 41 1015.0
20260830121820 77 260 12.0 0.0 0.00 0.00 0.00 44
20260830120203 77 230 14.0 0.0 0.00 0.00 0.00 47 1015.0
20260830113203 77 220 20.0 0.0 0.00 0.00 0.00 47 1015.0
20260830111900 75 230 18.0 0.0 0.00 0.00 0.00 47
20260830110202 77 210 18.0 0.0 0.00 0.00 0.00 47 1015.0
20260830103203 75 210 21.0 0.0 0.00 0.00 0.00 50 1015.0
20260830102104 75 230 16.0 0.0 0.00 0.00 0.00 47